| time (UTC) | temp F | wind direction | speed MPH | gust MPH | rain 1hr in | rain 24hr in | rain mn in | humidity % | barometer mb |
| 20260509012523 | 39 | 296 | 0.0 | 0.0 | 0.00 | 0.00 | 0.00 | 76 | 1011.8 |
| 20260509012058 | 39 | 296 | 0.0 | 1.0 | 0.00 | 0.00 | 0.00 | 75 | 1011.6 |
| 20260509011548 | 39 | 296 | 0.0 | 1.0 | 0.00 | 0.00 | 0.00 | 74 | 1011.5 |
| 20260509011031 | 40 | 297 | 0.0 | 0.0 | 0.00 | 0.00 | 0.00 | 74 | 1011.4 |
| 20260509010546 | 40 | 297 | 0.0 | 0.0 | 0.00 | 0.00 | 0.00 | 73 | 1011.4 |
| 20260509010031 | 41 | 297 | 0.0 | 0.0 | 0.00 | 0.00 | 0.00 | 72 | 1011.2 |
| 20260509005526 | 41 | 297 | 0.0 | 0.0 | 0.00 | 0.00 | 0.00 | 72 | 1011.1 |
| 20260509005033 | 41 | 297 | 0.0 | 0.0 | 0.00 | 0.00 | 0.00 | 72 | 1011.0 |
| 20260509004527 | 42 | 297 | 0.0 | 0.0 | 0.00 | 0.00 | 0.00 | 71 | 1011.0 |
| 20260509004038 | 42 | 297 | 0.0 | 0.0 | 0.00 | 0.00 | 0.00 | 71 | 1010.9 |
| 20260509003524 | 42 | 297 | 0.0 | 0.0 | 0.00 | 0.00 | 0.00 | 69 | 1010.8 |
| 20260509003039 | 43 | 297 | 0.0 | 0.0 | 0.00 | 0.00 | 0.00 | 69 | 1010.8 |
| 20260509002526 | 43 | 297 | 0.0 | 1.0 | 0.00 | 0.00 | 0.00 | 68 | 1010.6 |
| 20260509002041 | 44 | 297 | 0.0 | 1.0 | 0.00 | 0.00 | 0.00 | 68 | 1010.6 |
| 20260509001528 | 45 | 297 | 0.0 | 1.0 | 0.00 | 0.00 | 0.00 | 67 | 1010.4 |
| 20260509001111 | 45 | 298 | 0.0 | 0.0 | 0.00 | 0.00 | 0.00 | 66 | 1010.4 |
| 20260509000536 | 46 | 298 | 0.0 | 1.0 | 0.00 | 0.00 | 0.00 | 62 | 1010.5 |
| 20260509000051 | 46 | 297 | 0.0 | 1.0 | 0.00 | 0.00 | 0.00 | 63 | 1010.4 |
| 20260508235538 | 47 | 297 | 0.0 | 1.0 | 0.00 | 0.00 | 0.00 | 61 | 1010.4 |
| 20260508235053 | 47 | 297 | 0.0 | 4.0 | 0.00 | 0.00 | 0.00 | 59 | 1010.2 |
| 20260508234546 | 47 | 297 | 1.0 | 4.0 | 0.00 | 0.00 | 0.00 | 58 | 1010.2 |
| 20260508234101 | 47 | 259 | 1.0 | 3.0 | 0.00 | 0.00 | 0.00 | 58 | 1010.0 |
| 20260508233525 | 48 | 263 | 1.0 | 3.0 | 0.00 | 0.00 | 0.00 | 57 | 1010.0 |
| 20260508233057 | 48 | 219 | 1.0 | 2.0 | 0.00 | 0.00 | 0.00 | 56 | 1010.0 |
| 20260508232550 | 48 | 211 | 0.0 | 2.0 | 0.00 | 0.00 | 0.00 | 57 | 1010.0 |
| 20260508232037 | 48 | 325 | 0.0 | 4.0 | 0.00 | 0.00 | 0.00 | 57 | 1010.0 |
| 20260508231530 | 48 | 254 | 1.0 | 4.0 | 0.00 | 0.00 | 0.00 | 56 | 1009.9 |
| 20260508231106 | 49 | 259 | 1.0 | 8.0 | 0.00 | 0.00 | 0.00 | 54 | 1009.9 |
| 20260508230531 | 49 | 282 | 2.0 | 8.0 | 0.00 | 0.00 | 0.00 | 54 | 1009.9 |
| 20260508230045 | 49 | 43 | 1.0 | 7.0 | 0.00 | 0.00 | 0.00 | 54 | 1009.9 |
| 20260508225539 | 49 | 221 | 3.0 | 8.0 | 0.00 | 0.00 | 0.00 | 52 | 1009.9 |
| 20260508225026 | 49 | 215 | 2.0 | 8.0 | 0.00 | 0.00 | 0.00 | 53 | 1010.0 |
| 20260508224540 | 49 | 286 | 1.0 | 4.0 | 0.00 | 0.00 | 0.00 | 53 | 1009.8 |
| 20260508224027 | 49 | 305 | 1.0 | 6.0 | 0.00 | 0.00 | 0.00 | 54 | 1009.8 |
| 20260508223541 | 49 | 307 | 2.0 | 9.0 | 0.00 | 0.00 | 0.00 | 54 | 1009.7 |
| 20260508223034 | 50 | 234 | 1.0 | 9.0 | 0.00 | 0.00 | 0.00 | 53 | 1009.7 |
| 20260508222540 | 50 | 312 | 3.0 | 5.0 | 0.00 | 0.00 | 0.00 | 53 | 1009.6 |
| 20260508222036 | 50 | 183 | 2.0 | 6.0 | 0.00 | 0.00 | 0.00 | 52 | 1009.6 |
| 20260508221550 | 50 | 172 | 3.0 | 6.0 | 0.00 | 0.00 | 0.00 | 53 | 1009.6 |
| 20260508221035 | 50 | 320 | 0.0 | 8.0 | 0.00 | 0.00 | 0.00 | 53 | 1009.6 |
| 20260508220549 | 50 | 282 | 3.0 | 8.0 | 0.00 | 0.00 | 0.00 | 52 | 1009.6 |
| 20260508220035 | 51 | 355 | 2.0 | 6.0 | 0.00 | 0.00 | 0.00 | 52 | 1009.7 |
| 20260508215529 | 51 | 219 | 3.0 | 6.0 | 0.00 | 0.00 | 0.00 | 51 | 1009.5 |
| 20260508215035 | 51 | 196 | 2.0 | 5.0 | 0.00 | 0.00 | 0.00 | 51 | 1009.5 |
| 20260508214530 | 51 | 223 | 2.0 | 9.0 | 0.00 | 0.00 | 0.00 | 52 | 1009.5 |
| 20260508214044 | 51 | 278 | 2.0 | 8.0 | 0.00 | 0.00 | 0.00 | 54 | 1009.6 |
| 20260508213531 | 51 | 246 | 1.0 | 8.0 | 0.00 | 0.00 | 0.00 | 56 | 1009.6 |
| 20260508213101 | 51 | 185 | 2.0 | 6.0 | 0.00 | 0.00 | 0.00 | 55 | 1009.6 |
| 20260508212535 | 50 | 232 | 2.0 | 6.0 | 0.00 | 0.00 | 0.00 | 55 | 1009.7 |
| 20260508212041 | 50 | 341 | 1.0 | 4.0 | 0.00 | 0.00 | 0.00 | 55 | 1009.6 |
| 20260508211556 | 50 | 202 | 1.0 | 4.0 | 0.00 | 0.00 | 0.00 | 58 | 1009.6 |
| 20260508211028 | 49 | 240 | 0.0 | 2.0 | 0.00 | 0.00 | 0.00 | 59 | 1009.5 |
| 20260508210534 | 49 | 317 | 1.0 | 4.0 | 0.00 | 0.00 | 0.00 | 60 | 1009.6 |
| 20260508210030 | 49 | 197 | 2.0 | 5.0 | 0.00 | 0.00 | 0.00 | 60 | 1009.6 |
| 20260508205544 | 49 | 232 | 2.0 | 5.0 | 0.00 | 0.00 | 0.00 | 61 | 1009.7 |
| 20260508205028 | 49 | 203 | 1.0 | 8.0 | 0.00 | 0.00 | 0.00 | 62 | 1009.7 |
| 20260508204542 | 49 | 328 | 3.0 | 8.0 | 0.00 | 0.00 | 0.00 | 60 | 1009.8 |
| 20260508204058 | 49 | 227 | 2.0 | 5.0 | 0.00 | 0.00 | 0.00 | 60 | 1009.7 |
| 20260508203611 | 50 | 307 | 1.0 | 4.0 | 0.00 | 0.00 | 0.00 | 59 | 1009.7 |
| 20260508203035 | 50 | 159 | 1.0 | 5.0 | 0.00 | 0.00 | 0.00 | 58 | 1009.7 |
| 20260508202529 | 50 | 222 | 3.0 | 8.0 | 0.00 | 0.00 | 0.00 | 58 | 1009.7 |
| 20260508202035 | 50 | 325 | 2.0 | 8.0 | 0.00 | 0.00 | 0.00 | 61 | 1009.6 |
| 20260508201530 | 49 | 338 | 2.0 | 6.0 | 0.00 | 0.00 | 0.00 | 62 | 1009.6 |
| 20260508201045 | 49 | 236 | 2.0 | 6.0 | 0.00 | 0.00 | 0.00 | 62 | 1009.7 |
| 20260508200551 | 49 | 257 | 1.0 | 5.0 | 0.00 | 0.00 | 0.00 | 63 | 1009.7 |
| 20260508200059 | 49 | 222 | 1.0 | 6.0 | 0.00 | 0.00 | 0.00 | 64 | 1009.8 |
| 20260508195532 | 50 | 311 | 3.0 | 7.0 | 0.00 | 0.00 | 0.00 | 63 | 1009.6 |
| 20260508195048 | 49 | 209 | 3.0 | 13.0 | 0.00 | 0.00 | 0.00 | 62 | 1009.6 |
| 20260508194533 | 49 | 252 | 4.0 | 13.0 | 0.00 | 0.00 | 0.00 | 62 | 1009.6 |
| 20260508194026 | 49 | 336 | 2.0 | 6.0 | 0.00 | 0.00 | 0.00 | 68 | 1009.7 |
| 20260508193540 | 48 | 326 | 2.0 | 5.0 | 0.00 | 0.00 | 0.00 | 67 | 1009.8 |
| 20260508193037 | 47 | 216 | 1.0 | 5.0 | 0.00 | 0.00 | 0.00 | 70 | 1009.8 |
| 20260508192531 | 47 | 236 | 2.0 | 7.0 | 0.00 | 0.00 | 0.00 | 69 | 1009.8 |
| 20260508192045 | 47 | 329 | 1.0 | 7.0 | 0.00 | 0.00 | 0.00 | 74 | 1009.9 |
| 20260508191531 | 46 | 295 | 1.0 | 5.0 | 0.00 | 0.00 | 0.00 | 74 | 1010.0 |
| 20260508191025 | 45 | 211 | 1.0 | 4.0 | 0.00 | 0.00 | 0.00 | 76 | 1010.0 |
| 20260508190540 | 44 | 60 | 1.0 | 6.0 | 0.00 | 0.00 | 0.00 | 79 | 1010.1 |
| 20260508190026 | 44 | 304 | 2.0 | 6.0 | 0.00 | 0.00 | 0.00 | 76 | 1010.3 |
| 20260508185540 | 44 | 302 | 1.0 | 6.0 | 0.00 | 0.00 | 0.00 | 74 | 1010.3 |
| 20260508185027 | 44 | 229 | 1.0 | 4.0 | 0.00 | 0.00 | 0.00 | 72 | 1010.4 |
| 20260508184522 | 44 | 234 | 1.0 | 4.0 | 0.00 | 0.00 | 0.00 | 72 | 1010.3 |
| 20260508184028 | 45 | 321 | 1.0 | 4.0 | 0.00 | 0.00 | 0.00 | 72 | 1010.3 |
| 20260508183542 | 45 | 337 | 2.0 | 4.0 | 0.00 | 0.00 | 0.00 | 70 | 1010.4 |
| 20260508183036 | 45 | 175 | 1.0 | 4.0 | 0.00 | 0.00 | 0.00 | 68 | 1010.3 |
| 20260508182523 | 45 | 279 | 1.0 | 5.0 | 0.00 | 0.00 | 0.00 | 67 | 1010.3 |
| 20260508182037 | 45 | 230 | 2.0 | 5.0 | 0.00 | 0.00 | 0.00 | 66 | 1010.3 |
| 20260508181524 | 45 | 218 | 1.0 | 3.0 | 0.00 | 0.00 | 0.00 | 68 | 1010.2 |
| 20260508181033 | 45 | 306 | 1.0 | 3.0 | 0.00 | 0.00 | 0.00 | 68 | 1010.2 |
| 20260508180529 | 45 | 257 | 1.0 | 4.0 | 0.00 | 0.00 | 0.00 | 69 | 1010.1 |
| 20260508180032 | 45 | 269 | 1.0 | 3.0 | 0.00 | 0.00 | 0.00 | 69 | 1010.1 |
| 20260508175525 | 44 | 188 | 2.0 | 3.0 | 0.00 | 0.00 | 0.00 | 68 | 1010.1 |
| 20260508175040 | 44 | 233 | 1.0 | 3.0 | 0.00 | 0.00 | 0.00 | 69 | 1010.1 |
| 20260508174544 | 44 | 251 | 1.0 | 3.0 | 0.00 | 0.00 | 0.00 | 69 | 1010.2 |
| 20260508174036 | 44 | 220 | 0.0 | 8.0 | 0.00 | 0.00 | 0.00 | 70 | 1010.3 |
| 20260508173550 | 45 | 219 | 1.0 | 8.0 | 0.00 | 0.00 | 0.00 | 68 | 1010.3 |
| 20260508173035 | 45 | 320 | 2.0 | 7.0 | 0.00 | 0.00 | 0.00 | 68 | 1010.3 |
| 20260508172549 | 45 | 297 | 2.0 | 7.0 | 0.00 | 0.00 | 0.00 | 68 | 1010.3 |
| 20260508172024 | 46 | 268 | 1.0 | 9.0 | 0.00 | 0.00 | 0.00 | 65 | 1010.3 |
| 20260508171528 | 46 | 218 | 3.0 | 9.0 | 0.00 | 0.00 | 0.00 | 64 | 1010.3 |
| 20260508171044 | 46 | 244 | 2.0 | 5.0 | 0.00 | 0.00 | 0.00 | 64 | 1010.2 |
| 20260508170536 | 47 | 219 | 2.0 | 7.0 | 0.00 | 0.00 | 0.00 | 64 | 1010.2 |
| 20260508170023 | 47 | 297 | 2.0 | 7.0 | 0.00 | 0.00 | 0.00 | 66 | 1010.2 |
| 20260508165557 | 47 | 223 | 1.0 | 6.0 | 0.00 | 0.00 | 0.00 | 65 | 1010.1 |
| 20260508165050 | 47 | 228 | 2.0 | 8.0 | 0.00 | 0.00 | 0.00 | 62 | 1010.1 |
| 20260508164524 | 48 | 305 | 3.0 | 8.0 | 0.00 | 0.00 | 0.00 | 58 | 1010.1 |
| 20260508164025 | 49 | 219 | 3.0 | 9.0 | 0.00 | 0.00 | 0.00 | 53 | 1009.8 |
| 20260508163539 | 50 | 5 | 4.0 | 6.0 | 0.00 | 0.00 | 0.00 | 49 | 1009.8 |
| 20260508163033 | 51 | 300 | 2.0 | 8.0 | 0.00 | 0.00 | 0.00 | 48 | 1009.5 |
| 20260508162539 | 51 | 257 | 2.0 | 7.0 | 0.00 | 0.00 | 0.00 | 49 | 1009.4 |
| 20260508162031 | 52 | 215 | 1.0 | 6.0 | 0.00 | 0.00 | 0.00 | 49 | 1009.4 |
| 20260508161545 | 52 | 304 | 1.0 | 8.0 | 0.00 | 0.00 | 0.00 | 48 | 1009.3 |
| 20260508161032 | 52 | 294 | 1.0 | 15.0 | 0.00 | 0.00 | 0.00 | 48 | 1009.3 |
| 20260508160546 | 52 | 276 | 5.0 | 15.0 | 0.00 | 0.00 | 0.00 | 46 | 1009.2 |
| 20260508160029 | 53 | 218 | 3.0 | 8.0 | 0.00 | 0.00 | 0.00 | 48 | 1009.1 |
| 20260508155523 | 53 | 219 | 4.0 | 8.0 | 0.00 | 0.00 | 0.00 | 44 | 1009.3 |
| 20260508155038 | 53 | 229 | 2.0 | 4.0 | 0.00 | 0.00 | 0.00 | 47 | 1009.1 |
| 20260508154541 | 53 | 142 | 2.0 | 7.0 | 0.00 | 0.00 | 0.00 | 46 | 1009.2 |
| 20260508154035 | 52 | 213 | 3.0 | 7.0 | 0.00 | 0.00 | 0.00 | 52 | 1009.3 |
| 20260508153549 | 52 | 340 | 2.0 | 5.0 | 0.00 | 0.00 | 0.00 | 51 | 1009.4 |
| 20260508153033 | 51 | 209 | 2.0 | 9.0 | 0.00 | 0.00 | 0.00 | 51 | 1009.7 |
| 20260508152548 | 51 | 355 | 4.0 | 9.0 | 0.00 | 0.00 | 0.00 | 51 | 1009.7 |
| 20260508152043 | 50 | 134 | 2.0 | 10.0 | 0.00 | 0.00 | 0.00 | 54 | 1009.6 |
| 20260508151528 | 50 | 207 | 2.0 | 10.0 | 0.00 | 0.00 | 0.00 | 52 | 1009.7 |
| 20260508151043 | 51 | 216 | 2.0 | 7.0 | 0.00 | 0.00 | 0.00 | 52 | 1009.6 |
| 20260508150546 | 50 | 185 | 4.0 | 10.0 | 0.00 | 0.00 | 0.00 | 53 | 1009.4 |
| 20260508145526 | 50 | 277 | 2.0 | 7.0 | 0.00 | 0.00 | 0.00 | 55 | 1009.7 |
| 20260508145040 | 49 | 288 | 1.0 | 7.0 | 0.00 | 0.00 | 0.00 | 58 | 1009.7 |
| 20260508144525 | 48 | 311 | 3.0 | 8.0 | 0.00 | 0.00 | 0.00 | 57 | 1009.8 |
| 20260508144058 | 48 | 344 | 2.0 | 8.0 | 0.00 | 0.00 | 0.00 | 58 | 1009.8 |
| 20260508143531 | 47 | 226 | 3.0 | 6.0 | 0.00 | 0.00 | 0.00 | 59 | 1009.7 |
| 20260508143045 | 47 | 355 | 2.0 | 7.0 | 0.00 | 0.00 | 0.00 | 59 | 1009.5 |
| 20260508142530 | 47 | 265 | 2.0 | 7.0 | 0.00 | 0.00 | 0.00 | 60 | 1009.5 |
| 20260508142024 | 47 | 355 | 2.0 | 7.0 | 0.00 | 0.00 | 0.00 | 59 | 1009.5 |
| 20260508141538 | 47 | 211 | 3.0 | 9.0 | 0.00 | 0.00 | 0.00 | 59 | 1009.6 |
| 20260508141023 | 47 | 222 | 1.0 | 9.0 | 0.00 | 0.00 | 0.00 | 62 | 1009.7 |
| 20260508140557 | 47 | 225 | 1.0 | 3.0 | 0.00 | 0.00 | 0.00 | 62 | 1009.7 |
| 20260508140030 | 47 | 217 | 1.0 | 3.0 | 0.00 | 0.00 | 0.00 | 61 | 1009.7 |
| 20260508135604 | 47 | 263 | 1.0 | 4.0 | 0.00 | 0.00 | 0.00 | 61 | 1009.7 |
| 20260508135030 | 46 | 230 | 2.0 | 5.0 | 0.00 | 0.00 | 0.00 | 63 | 1009.8 |
| 20260508134524 | 46 | 348 | 2.0 | 8.0 | 0.00 | 0.00 | 0.00 | 62 | 1009.8 |
| 20260508134031 | 46 | 225 | 3.0 | 9.0 | 0.00 | 0.00 | 0.00 | 62 | 1010.0 |
| 20260508133525 | 46 | 270 | 2.0 | 6.0 | 0.00 | 0.00 | 0.00 | 62 | 1010.0 |
| 20260508133056 | 46 | 315 | 2.0 | 6.0 | 0.00 | 0.00 | 0.00 | 63 | 1009.9 |
| 20260508132550 | 46 | 316 | 2.0 | 6.0 | 0.00 | 0.00 | 0.00 | 63 | 1010.0 |
| 20260508132034 | 45 | 336 | 2.0 | 6.0 | 0.00 | 0.00 | 0.00 | 65 | 1010.0 |
| 20260508131525 | 45 | 219 | 2.0 | 4.0 | 0.00 | 0.00 | 0.00 | 66 | 1010.0 |
| 20260508131100 | 44 | 316 | 2.0 | 6.0 | 0.00 | 0.00 | 0.00 | 67 | 1010.3 |
| 20260508130525 | 43 | 332 | 4.0 | 6.0 | 0.00 | 0.00 | 0.00 | 66 | 1010.4 |
| 20260508130035 | 43 | 221 | 2.0 | 7.0 | 0.00 | 0.00 | 0.00 | 66 | 1010.4 |
| 20260508125548 | 43 | 225 | 3.0 | 7.0 | 0.00 | 0.00 | 0.00 | 66 | 1010.5 |
| 20260508125031 | 43 | 348 | 3.0 | 6.0 | 0.00 | 0.00 | 0.00 | 66 | 1010.6 |
| 20260508124524 | 44 | 304 | 2.0 | 5.0 | 0.00 | 0.00 | 0.00 | 65 | 1010.5 |
| 20260508124057 | 44 | 223 | 2.0 | 6.0 | 0.00 | 0.00 | 0.00 | 64 | 1010.4 |
| 20260508123540 | 44 | 287 | 3.0 | 6.0 | 0.00 | 0.00 | 0.00 | 64 | 1010.3 |
| 20260508123034 | 44 | 302 | 2.0 | 5.0 | 0.00 | 0.00 | 0.00 | 64 | 1010.4 |
| 20260508122548 | 44 | 202 | 1.0 | 5.0 | 0.00 | 0.00 | 0.00 | 65 | 1010.3 |
| 20260508122033 | 43 | 221 | 1.0 | 8.0 | 0.00 | 0.00 | 0.00 | 64 | 1010.3 |
| 20260508121527 | 43 | 226 | 3.0 | 8.0 | 0.00 | 0.00 | 0.00 | 64 | 1010.2 |
| 20260508121041 | 43 | 336 | 2.0 | 9.0 | 0.00 | 0.00 | 0.00 | 65 | 1010.2 |
| 20260508120525 | 43 | 327 | 3.0 | 9.0 | 0.00 | 0.00 | 0.00 | 64 | 1010.1 |
| 20260508120034 | 42 | 264 | 2.0 | 5.0 | 0.00 | 0.00 | 0.00 | 65 | 1010.2 |
| 20260508115549 | 42 | 330 | 2.0 | 6.0 | 0.00 | 0.00 | 0.00 | 64 | 1010.2 |
| 20260508115032 | 41 | 289 | 1.0 | 6.0 | 0.00 | 0.00 | 0.00 | 67 | 1010.4 |
| 20260508114543 | 41 | 211 | 0.0 | 6.0 | 0.00 | 0.00 | 0.00 | 66 | 1010.3 |
| 20260508114059 | 40 | 313 | 1.0 | 6.0 | 0.00 | 0.00 | 0.00 | 67 | 1010.4 |
| 20260508113544 | 40 | 286 | 2.0 | 6.0 | 0.00 | 0.00 | 0.00 | 69 | 1010.2 |
| 20260508113107 | 39 | 333 | 2.0 | 4.0 | 0.00 | 0.00 | 0.00 | 72 | 1010.2 |
| 20260508112530 | 38 | 346 | 0.0 | 5.0 | 0.00 | 0.00 | 0.00 | 75 | 1010.3 |
| 20260508112044 | 37 | 315 | 1.0 | 3.0 | 0.00 | 0.00 | 0.00 | 78 | 1010.3 |
| 20260508111528 | 36 | 288 | 1.0 | 3.0 | 0.00 | 0.00 | 0.00 | 81 | 1010.2 |
| 20260508111039 | 36 | 253 | 0.0 | 1.0 | 0.00 | 0.00 | 0.00 | 80 | 1010.1 |
| 20260508110525 | 35 | 250 | 0.0 | 0.0 | 0.00 | 0.00 | 0.00 | 81 | 1010.0 |
| 20260508110110 | 34 | 249 | 0.0 | 0.0 | 0.00 | 0.00 | 0.00 | 82 | 1010.1 |
| 20260508105554 | 34 | 248 | 0.0 | 0.0 | 0.00 | 0.00 | 0.00 | 82 | 1010.0 |
| 20260508105028 | 34 | 247 | 0.0 | 0.0 | 0.00 | 0.00 | 0.00 | 83 | 1010.0 |
| 20260508104545 | 33 | 244 | 0.0 | 0.0 | 0.00 | 0.00 | 0.00 | 83 | 1009.9 |
| 20260508104029 | 33 | 261 | 0.0 | 0.0 | 0.00 | 0.00 | 0.00 | 82 | 1009.9 |
| 20260508103540 | 33 | 260 | 0.0 | 0.0 | 0.00 | 0.00 | 0.00 | 82 | 1009.7 |
| 20260508103024 | 33 | 260 | 0.0 | 0.0 | 0.00 | 0.00 | 0.00 | 82 | 1009.7 |
| 20260508102538 | 33 | 261 | 0.0 | 0.0 | 0.00 | 0.00 | 0.00 | 81 | 1009.7 |
| 20260508102023 | 33 | 261 | 0.0 | 0.0 | 0.00 | 0.00 | 0.00 | 81 | 1009.6 |
| 20260508101536 | 33 | 260 | 0.0 | 0.0 | 0.00 | 0.00 | 0.00 | 80 | 1009.6 |
| 20260508101023 | 33 | 261 | 0.0 | 0.0 | 0.00 | 0.00 | 0.00 | 80 | 1009.4 |
| 20260508100536 | 34 | 261 | 0.0 | 0.0 | 0.00 | 0.00 | 0.00 | 79 | 1009.5 |
| 20260508100029 | 34 | 261 | 0.0 | 0.0 | 0.00 | 0.00 | 0.00 | 79 | 1009.4 |
| 20260508095534 | 34 | 261 | 0.0 | 0.0 | 0.00 | 0.00 | 0.00 | 79 | 1009.3 |
| 20260508095029 | 34 | 261 | 0.0 | 0.0 | 0.00 | 0.00 | 0.00 | 78 | 1009.2 |
| 20260508094543 | 35 | 261 | 0.0 | 0.0 | 0.00 | 0.00 | 0.00 | 77 | 1009.2 |
| 20260508094028 | 35 | 261 | 0.0 | 0.0 | 0.00 | 0.00 | 0.00 | 77 | 1009.2 |
| 20260508093541 | 35 | 260 | 0.0 | 0.0 | 0.00 | 0.00 | 0.00 | 76 | 1009.1 |
| 20260508093028 | 35 | 260 | 0.0 | 0.0 | 0.00 | 0.00 | 0.00 | 77 | 1009.0 |
| 20260508092523 | 36 | 260 | 0.0 | 0.0 | 0.00 | 0.00 | 0.00 | 77 | 1008.9 |
| 20260508092029 | 36 | 260 | 0.0 | 0.0 | 0.00 | 0.00 | 0.00 | 77 | 1008.9 |
| 20260508091523 | 36 | 260 | 0.0 | 0.0 | 0.00 | 0.00 | 0.00 | 76 | 1008.9 |
| 20260508091036 | 37 | 260 | 0.0 | 0.0 | 0.00 | 0.00 | 0.00 | 76 | 1008.9 |
| 20260508090539 | 37 | 260 | 0.0 | 0.0 | 0.00 | 0.00 | 0.00 | 75 | 1008.8 |
| 20260508090034 | 37 | 260 | 0.0 | 0.0 | 0.00 | 0.00 | 0.00 | 76 | 1008.7 |
| 20260508085549 | 37 | 260 | 0.0 | 0.0 | 0.00 | 0.00 | 0.00 | 74 | 1008.7 |
| 20260508085104 | 37 | 260 | 0.0 | 0.0 | 0.00 | 0.00 | 0.00 | 73 | 1008.7 |
| 20260508084528 | 37 | 260 | 0.0 | 0.0 | 0.00 | 0.00 | 0.00 | 75 | 1008.7 |
| 20260508084042 | 37 | 260 | 0.0 | 0.0 | 0.00 | 0.00 | 0.00 | 74 | 1008.7 |
| 20260508083529 | 38 | 260 | 0.0 | 0.0 | 0.00 | 0.00 | 0.00 | 73 | 1008.7 |
| 20260508083023 | 38 | 260 | 0.0 | 2.0 | 0.00 | 0.00 | 0.00 | 75 | 1008.7 |
| 20260508082526 | 38 | 260 | 0.0 | 2.0 | 0.00 | 0.00 | 0.00 | 75 | 1008.7 |
| 20260508082041 | 38 | 258 | 0.0 | 2.0 | 0.00 | 0.00 | 0.00 | 78 | 1008.8 |
| 20260508081527 | 38 | 258 | 1.0 | 2.0 | 0.00 | 0.00 | 0.00 | 77 | 1008.7 |
| 20260508081041 | 37 | 259 | 0.0 | 0.0 | 0.00 | 0.00 | 0.00 | 77 | 1008.7 |
| 20260508080535 | 37 | 259 | 0.0 | 2.0 | 0.00 | 0.00 | 0.00 | 75 | 1008.8 |
| 20260508080035 | 37 | 259 | 0.0 | 2.0 | 0.00 | 0.00 | 0.00 | 78 | 1008.8 |
| 20260508075528 | 37 | 258 | 0.0 | 0.0 | 0.00 | 0.00 | 0.00 | 78 | 1008.7 |
| 20260508075041 | 37 | 258 | 0.0 | 2.0 | 0.00 | 0.00 | 0.00 | 77 | 1008.7 |
| 20260508074526 | 36 | 258 | 0.0 | 2.0 | 0.00 | 0.00 | 0.00 | 76 | 1008.6 |
| 20260508074039 | 36 | 221 | 0.0 | 1.0 | 0.00 | 0.00 | 0.00 | 78 | 1008.6 |
| 20260508073554 | 35 | 221 | 0.0 | 1.0 | 0.00 | 0.00 | 0.00 | 83 | 1008.6 |
| 20260508073036 | 35 | 221 | 0.0 | 0.0 | 0.00 | 0.00 | 0.00 | 83 | 1008.7 |
| 20260508072529 | 35 | 221 | 0.0 | 1.0 | 0.00 | 0.00 | 0.00 | 83 | 1008.6 |
| 20260508072044 | 34 | 221 | 0.0 | 2.0 | 0.00 | 0.00 | 0.00 | 83 | 1008.6 |
| 20260508071530 | 34 | 221 | 0.0 | 2.0 | 0.00 | 0.00 | 0.00 | 83 | 1008.5 |
| 20260508071023 | 34 | 221 | 0.0 | 2.0 | 0.00 | 0.00 | 0.00 | 84 | 1008.5 |
| 20260508070529 | 33 | 220 | 0.0 | 1.0 | 0.00 | 0.00 | 0.00 | 85 | 1008.6 |
| 20260508070024 | 33 | 220 | 0.0 | 0.0 | 0.00 | 0.00 | 0.00 | 85 | 1008.5 |
| 20260508065540 | 33 | 220 | 0.0 | 0.0 | 0.00 | 0.01 | 0.00 | 86 | 1008.5 |
| 20260508065025 | 33 | 220 | 0.0 | 0.0 | 0.00 | 0.01 | 0.00 | 86 | 1008.6 |
| 20260508064539 | 33 | 220 | 0.0 | 0.0 | 0.00 | 0.01 | 0.00 | 86 | 1008.6 |
| 20260508064024 | 32 | 220 | 0.0 | 0.0 | 0.00 | 0.01 | 0.00 | 85 | 1008.6 |
| 20260508063539 | 32 | 220 | 0.0 | 0.0 | 0.00 | 0.01 | 0.00 | 85 | 1008.6 |
| 20260508063026 | 32 | 220 | 0.0 | 0.0 | 0.00 | 0.01 | 0.00 | 85 | 1008.5 |
| 20260508062536 | 32 | 220 | 0.0 | 0.0 | 0.00 | 0.01 | 0.00 | 85 | 1008.3 |
| 20260508062049 | 32 | 220 | 0.0 | 0.0 | 0.00 | 0.01 | 0.00 | 84 | 1008.2 |
| 20260508061533 | 33 | 220 | 0.0 | 0.0 | 0.00 | 0.01 | 0.00 | 84 | 1008.0 |
| 20260508061048 | 33 | 220 | 0.0 | 0.0 | 0.00 | 0.01 | 0.00 | 84 | 1008.0 |
| 20260508060543 | 33 | 220 | 0.0 | 0.0 | 0.00 | 0.01 | 0.00 | 84 | 1008.1 |
| 20260508060030 | 33 | 220 | 0.0 | 0.0 | 0.00 | 0.01 | 0.00 | 84 | 1008.1 |
| 20260508055524 | 33 | 220 | 0.0 | 0.0 | 0.00 | 0.01 | 0.00 | 84 | 1008.2 |
| 20260508055031 | 33 | 220 | 0.0 | 0.0 | 0.00 | 0.01 | 0.00 | 84 | 1008.2 |
| 20260508054546 | 33 | 220 | 0.0 | 0.0 | 0.00 | 0.01 | 0.00 | 84 | 1008.2 |
| 20260508054100 | 33 | 220 | 0.0 | 0.0 | 0.00 | 0.01 | 0.00 | 84 | 1008.0 |
| 20260508053555 | 33 | 220 | 0.0 | 0.0 | 0.00 | 0.01 | 0.00 | 84 | 1008.1 |
| 20260508053029 | 33 | 220 | 0.0 | 0.0 | 0.00 | 0.01 | 0.00 | 84 | 1008.1 |
| 20260508052536 | 33 | 220 | 0.0 | 0.0 | 0.00 | 0.01 | 0.00 | 84 | 1008.0 |
| 20260508052050 | 33 | 220 | 0.0 | 0.0 | 0.00 | 0.01 | 0.00 | 84 | 1007.9 |
| 20260508051544 | 33 | 220 | 0.0 | 0.0 | 0.00 | 0.01 | 0.00 | 83 | 1008.0 |
| 20260508051038 | 33 | 220 | 0.0 | 0.0 | 0.00 | 0.01 | 0.00 | 83 | 1008.1 |
| 20260508050607 | 33 | 220 | 0.0 | 0.0 | 0.00 | 0.01 | 0.00 | 83 | 1008.1 |
| 20260508050030 | 33 | 220 | 0.0 | 0.0 | 0.00 | 0.01 | 0.00 | 83 | 1008.2 |
| 20260508045521 | 33 | 220 | 0.0 | 0.0 | 0.00 | 0.01 | 0.00 | 83 | 1008.2 |
| 20260508045054 | 33 | 220 | 0.0 | 0.0 | 0.00 | 0.01 | 0.00 | 83 | 1008.3 |
| 20260508044546 | 33 | 220 | 0.0 | 0.0 | 0.00 | 0.01 | 0.00 | 83 | 1008.3 |
| 20260508044029 | 33 | 220 | 0.0 | 0.0 | 0.00 | 0.01 | 0.00 | 83 | 1008.4 |
| 20260508043543 | 33 | 220 | 0.0 | 0.0 | 0.00 | 0.01 | 0.00 | 83 | 1008.4 |
| 20260508043028 | 34 | 220 | 0.0 | 1.0 | 0.00 | 0.01 | 0.00 | 83 | 1008.4 |
| 20260508042522 | 34 | 220 | 0.0 | 1.0 | 0.00 | 0.01 | 0.00 | 83 | 1008.3 |
| 20260508042028 | 34 | 219 | 0.0 | 0.0 | 0.00 | 0.01 | 0.00 | 83 | 1008.3 |
| 20260508041522 | 34 | 219 | 0.0 | 0.0 | 0.00 | 0.01 | 0.00 | 83 | 1008.2 |
| 20260508041037 | 34 | 219 | 0.0 | 0.0 | 0.00 | 0.01 | 0.00 | 82 | 1008.2 |
| 20260508040523 | 34 | 219 | 0.0 | 0.0 | 0.00 | 0.01 | 0.00 | 82 | 1008.3 |
| 20260508040052 | 34 | 219 | 0.0 | 0.0 | 0.00 | 0.01 | 0.00 | 82 | 1008.4 |
| 20260508035526 | 34 | 220 | 0.0 | 0.0 | 0.00 | 0.01 | 0.01 | 82 | 1008.3 |
| 20260508035033 | 35 | 220 | 0.0 | 0.0 | 0.00 | 0.01 | 0.01 | 82 | 1008.4 |
| 20260508034527 | 35 | 220 | 0.0 | 0.0 | 0.00 | 0.01 | 0.01 | 81 | 1008.5 |
| 20260508034042 | 35 | 220 | 0.0 | 0.0 | 0.00 | 0.01 | 0.01 | 80 | 1008.5 |
| 20260508033548 | 35 | 220 | 0.0 | 0.0 | 0.00 | 0.01 | 0.01 | 80 | 1008.5 |
| 20260508033023 | 35 | 220 | 0.0 | 0.0 | 0.00 | 0.01 | 0.01 | 79 | 1008.5 |
| 20260508032532 | 35 | 220 | 0.0 | 0.0 | 0.00 | 0.01 | 0.01 | 80 | 1008.5 |
| 20260508032038 | 35 | 220 | 0.0 | 0.0 | 0.00 | 0.01 | 0.01 | 79 | 1008.6 |
| 20260508031534 | 35 | 220 | 0.0 | 0.0 | 0.00 | 0.01 | 0.01 | 79 | 1008.5 |
| 20260508031049 | 35 | 220 | 0.0 | 0.0 | 0.00 | 0.01 | 0.01 | 78 | 1008.6 |
| 20260508030535 | 36 | 219 | 0.0 | 0.0 | 0.00 | 0.01 | 0.01 | 78 | 1008.5 |
| 20260508030022 | 36 | 220 | 0.0 | 0.0 | 0.00 | 0.01 | 0.01 | 77 | 1008.4 |
| 20260508025535 | 36 | 220 | 0.0 | 0.0 | 0.00 | 0.01 | 0.01 | 78 | 1008.5 |
| 20260508025031 | 36 | 220 | 0.0 | 0.0 | 0.00 | 0.01 | 0.01 | 77 | 1008.4 |
| 20260508024535 | 36 | 219 | 0.0 | 0.0 | 0.00 | 0.01 | 0.01 | 77 | 1008.6 |
| 20260508024028 | 36 | 220 | 0.0 | 0.0 | 0.00 | 0.01 | 0.01 | 76 | 1008.6 |
| 20260508023544 | 37 | 220 | 0.0 | 0.0 | 0.00 | 0.01 | 0.01 | 76 | 1008.6 |
| 20260508023029 | 37 | 220 | 0.0 | 0.0 | 0.00 | 0.01 | 0.01 | 75 | 1008.6 |
| 20260508022523 | 37 | 220 | 0.0 | 0.0 | 0.00 | 0.01 | 0.01 | 74 | 1008.6 |
| 20260508022056 | 37 | 220 | 0.0 | 0.0 | 0.00 | 0.01 | 0.01 | 74 | 1008.6 |
| 20260508021521 | 38 | 220 | 0.0 | 0.0 | 0.00 | 0.01 | 0.01 | 74 | 1008.6 |
| 20260508021036 | 38 | 220 | 0.0 | 0.0 | 0.00 | 0.01 | 0.01 | 74 | 1008.6 |
| 20260508020523 | 38 | 220 | 0.0 | 0.0 | 0.00 | 0.01 | 0.01 | 73 | 1008.6 |
| 20260508020032 | 38 | 220 | 0.0 | 0.0 | 0.00 | 0.01 | 0.01 | 73 | 1008.5 |
| 20260508015545 | 39 | 220 | 0.0 | 0.0 | 0.00 | 0.04 | 0.01 | 71 | 1008.5 |
| 20260508015038 | 39 | 220 | 0.0 | 0.0 | 0.00 | 0.04 | 0.01 | 70 | 1008.5 |
| 20260508014523 | 39 | 219 | 0.0 | 0.0 | 0.00 | 0.04 | 0.01 | 70 | 1008.5 |
| 20260508014052 | 40 | 219 | 0.0 | 0.0 | 0.00 | 0.04 | 0.01 | 69 | 1008.4 |
| 20260508013525 | 40 | 219 | 0.0 | 0.0 | 0.00 | 0.04 | 0.01 | 69 | 1008.3 |
| 20260508013033 | 40 | 219 | 0.0 | 0.0 | 0.00 | 0.04 | 0.01 | 68 | 1008.5 |